STARLINK-32000, 60289

Orbit data source: Space-Track

STARLINK-32000, 60289 is a payload satellite owned by SpaceX/Seattle (US) in LEO that was launched on Sun, 28 Jul 2024 UTC via an FALCON 9 launch vehicle from the Air Force Eastern Test Range (AFETR). Payload-class satellites include a variety of spacecraft equipped with specific instruments for various scientific and technological missions. These include communications satellites like Starlink; space stations such as the ISS; scientific satellites like the Hubble; Earth observation satellites from companies like Planet Labs, Umbra, and HawkEye 360; GPS; miniature CubeSats for education and research; and military/defense satellites.

Loading next visibility...
Identifier
60289, 2024-132M
Orbit
LEO
Last TLE update
20 hours ago
Origin
Manufacturer
SpaceX/Seattle
Mission
Operational spacecraft
Bus & Motor
STARLINK V2M, Unknown motor
Mass
730 kg wet, ~700 kg dry
Launch date (UTC)
2024-07-28 (11 months ago)
Launch vehicle
FALCON 9
Launch site
Air Force Eastern Test Range (AFETR)
Object type
Payload
Rocket body
Debris
Shape & HBR
Unknown
Radar Cross Section
Large (>1 m²)

Expand to show TLE details & history

TLE from 20 hours ago
0 STARLINK-32000
1 60289U 24132M   25181.60782148  .00000524  00000-0  29809-4 0  9993
2 60289  53.1593 143.4615 0001083  83.9020 276.2104 15.30192089 52963
Epoch: 2025-06-30T14:35Z
TLE epoch observation values (Epoch: 2025-06-30T14:35:15.775Z)
Latitude
-0.00005°
Longitude
5.73054°
Altitude
476.058 km
Speed
7.629 km/s
True Right ascension
09h 33m 50s
True Declination
0° 00' 00"
Sunlit
Object was in daylight at epoch
Visualization orbit readout
Latitude
-53.13616°
Longitude
-94.59625°
Altitude
494.453 km
Speed
7.617 km/s
Apparent Right ascension
06h 59m 47s
Apparent Declination
-61° 17' 31"
Sunlit
Object is in daylight
Visualization observer readout
Local Sidereal Time
22:11:51
Azimuth
142.571° SSE
Elevation
-54.021°
Doppler factor
1
Orbital elements
Apogee altitude
476.237 km
Perigee altitude
474.753 km
Semi-major axis
6,853.632 km
Eccentricity
0.00011
Inclination
53.1593°
RAAN
143.4615°
Arg. of periapsis
83.902°
True anomaly
Unknown
Mean anomaly
276.2104°
Eccentric anomaly
Unknown
Mean motion
3.82527 °/min
Orbital period
94.11 mins
BSTAR
0.000029809
Loading maneuver chart data...
Loading SW <> Apogee altitude chart data...
Loading historical data...
Loading historical data...
Loading historical data...
Loading historical data...
Loading historical data...
Loading historical data...
Loading historical data...

STARLINK-32000 Visibility forecast

Observer location: undefined°, undefined°

Span
Click to sort rows by Start time (UTC) header in descending order
Start Az.
Max El. time (UTC)
Max El. Az.
Max El.
End time (UTC)
End Az.
6 mins2025-07-01 23:40:23.648Z214.81° SW2025-07-01 23:43:23.648Z151.124° SSE40.427°2025-07-01 23:46:23.648Z59.273° ENE
4 mins2025-07-02 01:20:23.648Z303.152° NW2025-07-02 01:21:23.648Z325.895° NNW20.785°2025-07-02 01:24:23.648Z25.149° NE
5 mins2025-07-02 06:16:23.648Z326.913° NNW2025-07-02 06:18:23.648Z24° NE37.446°2025-07-02 06:21:23.648Z109.296° ESE
|